Regional Weather Roundup
Issued by NWS Little Rock, AR

Home | Current Version | Previous Version | Graphics & Text | Print | Product List | Glossary On
Versions: 1 2 3 4 5 6 7 8 9 10 11 12 13 14 15 16 17 18 19 20 21 22 23 24 25 26 27 28 29 30 31 32 33 34 35 36 37 38 39 40 41 42 43 44 45 46 47 48 49 50
449
ASUS44 KLZK 271205
RWRLZK

WEATHER ROUNDUP FOR ARKANSAS
NATIONAL WEATHER SERVICE LITTLE ROCK AR
600 AM CST MON FEB 27 2017

NOTE: "FAIR" INDICATES FEW OR NO CLOUDS BELOW 12,000 FEET WITH NO
SIGNIFICANT WEATHER AND/OR OBSTRUCTIONS TO VISIBILITY.

ARZ001-003-010-029-271300-
NORTHWEST ARKANSAS

CITY           SKY/WX    TMP DP  RH WIND       PRES   REMARKS
FAYETTEVILLE   CLEAR     28  28 100 CALM      30.02R
6HR MIN TEMP:  28; 6HR MAX TEMP:  36;

FORT SMITH     CLEAR     42  35  76 E6        30.03R
6HR MIN TEMP:  41; 6HR MAX TEMP:  50;

HARRISON       CLEAR     34  29  82 S5        30.03S WCI  30
6HR MIN TEMP:  33; 6HR MAX TEMP:  45;

BENTONVILLE    CLEAR     37  30  75 E5        30.01S
6HR MIN TEMP:  37; 6HR MAX TEMP:  43;

ROGERS         CLEAR     37  34  89 E7        30.02R
6HR MIN TEMP:  37; 6HR MAX TEMP:  43;

SILOAM SPGS    CLEAR     36  28  75 E6        30.00S
6HR MIN TEMP:  36; 6HR MAX TEMP:  43;

HIGHFILL       CLEAR     34  29  82 CALM      30.00S
6HR MIN TEMP:  33; 6HR MAX TEMP:  40;

SPRINGDALE     CLEAR     37  30  75 E5        30.02
$$

ARZ004-005-016-271300-
NORTH CENTRAL ARKANSAS

CITY           SKY/WX    TMP DP  RH WIND       PRES   REMARKS
BATESVILLE     PTCLDY    41  37  87 CALM      30.09R
6HR MIN TEMP:  39; 6HR MAX TEMP:  46;

FLIPPIN        CLEAR     34  27  75 CALM      30.04R
6HR MIN TEMP:  34; 6HR MAX TEMP:  46;

MTN HOME       CLEAR     38  31  76 SE3       30.05R
6HR MIN TEMP:  37; 6HR MAX TEMP:  45;

$$

ARZ040-041-271300-
WEST CENTRAL ARKANSAS

CITY           SKY/WX    TMP DP  RH WIND       PRES   REMARKS
MENA           CLOUDY    48  46  93 CALM      30.04R
MOUNT IDA      CLOUDY    48  46  93 CALM      30.01R
6HR MIN TEMP:  45; 6HR MAX TEMP:  48;

$$

ARZ009-017-025-026-028-271300-
NORTHEAST ARKANSAS

CITY           SKY/WX    TMP DP  RH WIND       PRES   REMARKS
CORNING        CLOUDY    46  45  93 E3        30.10R
JONESBORO      CLOUDY    47  45  93 NE5       30.09R
6HR MIN TEMP:  47; 6HR MAX TEMP:  49; 6HR PCP:  0.06;

NEWPORT        PTCLDY    45  44  97 CALM      30.09R
6HR MIN TEMP:  45; 6HR MAX TEMP:  48;

WALNUT RIDGE   CLOUDY    45  39  81 E6        30.09R
6HR MIN TEMP:  45; 6HR MAX TEMP:  48; 6HR PCP:  0.01;

BLYTHEVILLE    MOCLDY    48  45  89 S6        30.10R
6HR MIN TEMP:  48; 6HR MAX TEMP:  50; 6HR PCP:  0.07;

$$

ARZ022-023-033-042-044-271300-
CENTRAL ARKANSAS

CITY           SKY/WX    TMP DP  RH WIND       PRES   REMARKS
LITTLE ROCK    CLOUDY    44  44 100 NE3       30.06S
6HR MIN TEMP:  43; 6HR MAX TEMP:  48; 6HR PCP: TRACE;

N LITTLE ROCK    N/A     45  44  95 E3        30.07S
6HR MIN TEMP:  45; 6HR MAX TEMP:  46;

JACKSONVILLE   MOCLDY    46  45  99 E3        30.05S
6HR MIN TEMP:  45; 6HR MAX TEMP:  47; 6HR PCP: TRACE;

SEARCY         CLOUDY    46  45  96 N6        30.08F
6HR MIN TEMP:  45; 6HR MAX TEMP:  47; 6HR PCP: TRACE;

HOT SPRINGS    CLOUDY    49  48  97 SE3       30.06R
6HR MIN TEMP:  47; 6HR MAX TEMP:  49; 6HR PCP: TRACE;

RUSSELLVILLE   CLEAR     38  35  89 CALM      30.05R
6HR MIN TEMP:  38; 6HR MAX TEMP:  50;

CLINTON        FAIR      36  34  93 CALM      30.07S
$$

ARZ036-271300-
EAST ARKANSAS

CITY           SKY/WX    TMP DP  RH WIND       PRES   REMARKS
WEST MEMPHIS   PTCLDY    47  46  97 SE7       30.08R
6HR MIN TEMP:  47; 6HR MAX TEMP:  50; 6HR PCP:  0.20;

$$

ARZ050-053-066-070-073-271300-
SOUTHWEST ARKANSAS

CITY           SKY/WX    TMP DP  RH WIND       PRES   REMARKS
ARKADELPHIA    LGT RAIN  49  48  97 NE6       30.07R
6HR MIN TEMP:  48; 6HR MAX TEMP:  49; 6HR PCP:  0.11;

CAMDEN         CLOUDY    50  48  93 CALM      30.05R
TEXARKANA      CLOUDY    51  51 100 NE5       30.03R FOG
6HR MIN TEMP:  49; 6HR MAX TEMP:  54; 6HR PCP:  1.22;

EL DORADO      LGT RAIN  52  51  97 E7        30.05R
6HR MIN TEMP:  49; 6HR MAX TEMP:  53; 6HR PCP:  0.80;

DE QUEEN       TSTM      50  50 100 VRB3      30.01R FOG
6HR MIN TEMP:  47; 6HR MAX TEMP:  51; 6HR PCP:  0.29;

$$

ARZ056-057-069-271300-
SOUTHEAST ARKANSAS

CITY           SKY/WX    TMP DP  RH WIND       PRES   REMARKS
PINE BLUFF     CLOUDY    49  48  97 NE3       30.07R
6HR MIN TEMP:  48; 6HR MAX TEMP:  49; 6HR PCP:  0.59;

STUTTGART      CLOUDY    48  39  71 E3        30.08S
6HR MIN TEMP:  46; 6HR MAX TEMP:  52; 6HR PCP:  0.28;

MONTICELLO     CLOUDY    50  48  93 S6        30.07F
6HR MIN TEMP:  48; 6HR MAX TEMP:  59; 6HR PCP:  0.97;


$$






USA.gov is the U.S. government's official web portal to all federal, state and local government web resources and services.